sat.trackr.live / text

‹ back to catalog

STARLINK-36588

NORAD 67573 · 2026-016N

PAYLOAD ACTIVE UNKNOWN

§ Identity

Operator
Country
US
Launch date
2026-01-25
Launch site
AFWTR
Launch vehicle
Mass (kg)
RCS (m²)

Purposes: comms

External: N2YO · Heavens-Above · Gunter

§ Orbital elements

Epoch: 2026-09-19T21:15:49.020192Z

Period
93.90 min
Inclination
97.2856°
Eccentricity
0.0001305
Mean motion
15.33473882 rev/d
Perigee alt
464.6 km
Apogee alt
466.4 km
Semi-major
6,843.6 km
B*
4.8929e-4
RAAN
321.5137°
Arg perigee
282.7024°
Mean anomaly
77.4073°
Rev number
3,662

§ Raw data

STARLINK-365881 67573U 26016N   26262.88598403  .00015768  00000+0  48929-3 0  99972 67573  97.2856 321.5137 0001305 282.7024  77.4073 15.33473882 36622

JSON: /api/v1/satellites/67573 · /tle

For live sub-satellite position, see the globe view (requires WebGL).

§ Visibility from observer

Set your observer location to see the next 7 days of passes ≥ 10°. The values pass through the URL so the page stays shareable.

No JS? Fill the form by hand. The geolocation button needs JavaScript.